Orbital Elements at Epoch 2459200.5 (2020-Dec-17.0) TDB
Reference: JPL 16 (heliocentric ecliptic J2000)
Element | Value | Uncertainty (1-sigma) | Units |
e | .172014092023664 | 5.355e-08 | |
a | 2.724038939734555 | 1.5049e-08 | au |
q | 2.255465854879011 | 1.5231e-07 | au |
i | 2.729779698743304 | 5.134e-06 | deg |
node | 5.915406567147894 | 9.3042e-05 | deg |
peri | 10.8088127034898 | 9.412e-05 | deg |
M | 340.2102529486668 | 1.4953e-05 | deg |
tp | 2459290.772638543584 (2021-Mar-17.27263854) | 6.8578e-05 | TDB |
period | 1642.171059154644 4.50 | 1.3608e-05 3.726e-08 | d yr |
n | .2192219854278278 | 1.8167e-09 | deg/d |
Q | 3.192612024590099 | 1.7638e-08 | au |
|
| | Orbit Determination Parameters
Additional Information
|